Location: Eitze
(52.9840°N, 9.6894°E)
Time: 01:23:04
(UTC+00:00)

GEOS 3 Rocket - Pass Details

Date: 19 May 2025
Orbit: 782 x 832 km, 115.0° (Epoch: 23 June)

Event Time Altitude Azimuth Distance (km) Brightness Sun altitude
Exits shadow 23:21:52 - 122° (ESE) 2,616 6.0 -17.0°
Reaches altitude 10° 23:22:32 10° 121° (ESE) 2,346 5.7 -17.0°
Maximum altitude 23:27:35 69° 39° (NE) 850 3.8 -17.0°
Drops below altitude 10° 23:32:42 10° 318° (NW) 2,383 6.7 -17.0°
Sets 23:35:01 0° 316° (NW) 3,324 7.4 -16.9°
